FW7196 Weather Reports


time (UTC)temp
F
wind
direction
speed
knots
gust
knots
rain 1hr
in
rain 24hr
in
rain mn
in
humidity
%
barometer
mb
20260508231536 50 0 0.0 7.0 0.00 0.00 0.00 41 1009.3
20260508230047 50 0 0.9 2.6 0.00 0.00 0.00 40 1009.2
20260508224541 51 0 0.0 0.0 0.00 0.00 0.00 39 1009.2
20260508223039 51 0 0.0 5.2 0.00 0.00 0.00 43 1009.0
20260508221545 52 72 0.0 2.6 0.00 0.00 0.00 37 1009.0
20260508220037 52 334 0.9 2.6 0.00 0.00 0.00 38 1008.9
20260508214535 52 0 0.0 1.7 0.00 0.00 0.00 39 1008.8
20260508213034 52 0 0.0 5.2 0.00 0.00 0.00 41 1008.8
20260508211535 52 0 0.0 3.5 0.00 0.00 0.00 37 1008.8
20260508211252 53 299 0.9 2.6 0.00 0.00 0.00 39 1008.7
20260508210745 53 340 0.9 2.6 0.00 0.00 0.00 38 1008.6
20260508210236 53 70 0.0 2.6 0.00 0.00 0.00 35 1008.5
20260508210036 52 329 0.9 5.2 0.00 0.00 0.00 36 1008.6
20260508205722 52 23 0.0 2.6 0.00 0.00 0.00 36 1008.5
20260508204539 52 324 1.7 4.3 0.00 0.00 0.00 40 1008.5
20260508203942 52 340 0.9 2.6 0.00 0.00 0.00 39 1008.3
20260508203450 52 340 0.9 2.6 0.00 0.00 0.00 39 1008.4
20260508203035 52 302 1.7 3.5 0.00 0.00 0.00 39 1008.4
20260508202957 52 357 0.9 2.6 0.00 0.00 0.00 39 1008.3
20260508202453 52 336 0.9 2.6 0.00 0.00 0.00 38 1008.3
20260508201536 52 358 0.9 3.5 0.00 0.00 0.00 38 1008.3
20260508200655 52 321 0.0 0.0 0.00 0.00 0.00 39 1008.2
20260508200201 51 321 0.0 0.0 0.00 0.00 0.00 41 1008.3
20260508200043 51 0 0.0 4.3 0.00 0.00 0.00 39 1008.3
20260508195649 51 3 0.9 2.6 0.00 0.00 0.00 39 1008.4
20260508195149 52 301 0.0 1.7 0.00 0.00 0.00 39 1008.4
20260508194535 51 23 0.0 2.6 0.00 0.00 0.00 41 1008.4
20260508193037 51 0 0.0 3.5 0.00 0.00 0.00 40 1008.5
20260508191534 52 24 1.7 7.8 0.00 0.00 0.00 38 1008.4
20260508190043 50 143 0.9 3.5 0.00 0.00 0.00 42 1008.7
20260508184538 49 0 0.0 3.5 0.00 0.00 0.00 43 1008.8
20260508183037 50 353 1.7 3.5 0.00 0.00 0.00 43 1008.8
20260508181537 51 0 0.9 7.0 0.00 0.00 0.00 40 1008.7
20260508180035 50 246 1.7 7.8 0.00 0.00 0.00 41 1008.8
20260508174539 50 236 0.9 4.3 0.00 0.00 0.00 44 1009.0
20260508173038 50 245 0.9 7.0 0.00 0.00 0.00 42 1009.0
20260508171535 49 327 0.9 5.2 0.00 0.00 0.00 46 1009.1
20260508170036 48 307 0.0 5.2 0.00 0.00 0.00 45 1009.1
20260508164538 48 91 0.9 4.3 0.00 0.00 0.00 44 1009.1
20260508163034 48 330 0.9 5.2 0.00 0.00 0.00 45 1009.3
20260508161534 49 124 0.9 4.3 0.00 0.00 0.00 43 1009.2
20260508160036 50 353 0.9 4.3 0.00 0.00 0.00 42 1009.0
20260508154536 50 315 1.7 7.0 0.00 0.00 0.00 42 1008.9
20260508153036 49 107 1.7 6.1 0.00 0.00 0.00 41 1008.8
20260508151534 49 301 0.9 4.3 0.00 0.00 0.00 43 1008.8
20260508150042 50 353 1.7 5.2 0.00 0.00 0.00 41 1008.9
20260508144538 50 239 1.7 7.8 0.00 0.00 0.00 38 1008.8
20260508143036 50 112 1.7 5.2 0.00 0.00 0.00 40 1008.7
20260508141615 50 249 0.9 5.2 0.00 0.00 0.00 38 1008.9
20260508141537 50 348 0.9 7.0 0.00 0.00 0.00 38 1008.8
20260508141100 50 70 0.9 7.0 0.00 0.00 0.00 38 1008.8
20260508140603 49 196 0.9 7.0 0.00 0.00 0.00 40 1009.0
20260508140109 48 348 1.7 7.0 0.00 0.00 0.00 38 1008.8
20260508140035 48 340 1.7 8.7 0.00 0.00 0.00 38 1008.8
20260508135610 48 353 1.7 7.0 0.00 0.00 0.00 38 1008.9
20260508135102 48 80 1.7 7.0 0.00 0.00 0.00 39 1009.0
20260508134555 48 226 1.7 7.0 0.00 0.00 0.00 40 1009.0
20260508134538 47 303 1.7 7.0 0.00 0.00 0.00 40 1008.9
20260508134046 47 288 0.9 7.0 0.00 0.00 0.00 44 1009.0
20260508133533 47 12 1.7 7.0 0.00 0.00 0.00 44 1009.0
20260508133038 46 93 1.7 7.8 0.00 0.00 0.00 44 1008.8
20260508133026 46 109 0.9 6.1 0.00 0.00 0.00 44 1008.8
20260508132527 46 120 0.0 4.3 0.00 0.00 0.00 45 1008.9
20260508132022 46 149 0.0 2.6 0.00 0.00 0.00 47 1009.0
20260508131535 45 332 0.0 3.5 0.00 0.00 0.00 51 1009.0
20260508131519 46 332 0.0 1.7 0.00 0.00 0.00 51 1009.0
20260508131011 45 353 0.0 4.3 0.00 0.00 0.00 48 1009.0
20260508130502 45 357 0.0 4.3 0.00 0.00 0.00 49 1009.1
20260508130056 44 0 0.0 8.7 0.00 0.00 0.00 51 1009.1
20260508125955 45 38 0.0 0.9 0.00 0.00 0.00 51 1009.1
20260508124535 43 0 0.0 2.6 0.00 0.00 0.00 61 1009.2
20260508123035 42 0 0.0 1.7 0.00 0.00 0.00 63 1009.2
20260508121538 42 0 0.0 3.5 0.00 0.00 0.00 72 1009.2
20260508120035 40 0 0.9 3.5 0.00 0.00 0.00 69 1009.2
20260508114535 38 0 0.0 2.6 0.00 0.00 0.00 76 1009.1
20260508113041 34 0 0.0 1.7 0.00 0.00 0.00 87 1009.0
20260508111534 32 0 0.0 0.0 0.00 0.00 0.00 91 1008.8
20260508110037 31 0 0.0 0.0 0.00 0.00 0.00 92 1008.8
20260508104603 30 0 0.0 0.0 0.00 0.00 0.00 92 1008.7
20260508103044 30 0 0.0 0.0 0.00 0.00 0.00 92 1008.5
20260508101535 30 0 0.0 0.0 0.00 0.00 0.00 92 1008.5
20260508100034 29 0 0.0 0.0 0.00 0.00 0.00 92 1008.3
20260508094543 29 0 0.0 0.0 0.00 0.00 0.00 92 1008.3
20260508093035 29 0 0.0 0.0 0.00 0.00 0.00 92 1008.2
20260508091536 29 0 0.0 0.0 0.00 0.00 0.00 92 1008.1
20260508090037 29 0 0.0 0.0 0.00 0.00 0.00 91 1007.9
20260508084535 29 0 0.0 0.0 0.00 0.00 0.00 91 1007.9
20260508083044 29 0 0.0 0.0 0.00 0.00 0.00 91 1008.0
20260508081542 29 0 0.0 0.0 0.00 0.00 0.00 91 1007.8
20260508080036 29 0 0.0 0.0 0.00 0.00 0.00 91 1007.7
20260508074536 29 0 0.0 0.0 0.00 0.00 0.00 90 1007.6
20260508073034 29 0 0.0 0.0 0.00 0.00 0.00 90 1007.6
20260508071538 30 0 0.0 0.0 0.00 0.00 0.00 89 1007.6
20260508070113 30 0 0.0 0.0 0.00 0.00 0.00 89 1007.8
20260508064538 31 0 0.0 0.0 0.00 0.00 0.00 89 1007.9
20260508063037 31 0 0.0 0.0 0.00 0.00 0.00 88 1007.8
20260508061537 31 0 0.0 0.0 0.00 0.00 0.00 88 1007.8
20260508060040 31 0 0.0 0.0 0.00 0.00 0.00 88 1007.9
20260508054537 31 0 0.0 0.0 0.00 0.00 0.00 87 1007.9
20260508053038 32 0 0.0 0.0 0.00 0.00 0.00 87 1008.1
20260508051535 32 0 0.0 0.0 0.00 0.00 0.00 87 1008.5
20260508050036 32 0 0.0 0.0 0.00 0.00 0.00 86 1008.5
20260508044535 33 0 0.0 0.0 0.00 0.00 0.00 85 1008.5
20260508043053 33 0 0.0 0.0 0.00 0.00 0.00 84 1008.4
20260508041537 34 0 0.0 0.0 0.00 0.00 0.00 83 1008.5
20260508040036 34 0 0.0 0.0 0.00 0.00 0.00 82 1008.4
20260508034535 35 0 0.0 0.0 0.00 0.00 0.00 81 1008.4
20260508033038 36 0 0.0 0.0 0.00 0.00 0.00 79 1008.3
20260508031536 36 0 0.0 0.0 0.00 0.00 0.00 77 1008.3
20260508030048 37 0 0.0 0.0 0.00 0.00 0.00 74 1008.4
20260508024536 38 0 0.0 0.0 0.00 0.04 0.00 72 1008.4
20260508023037 39 0 0.0 0.0 0.00 0.04 0.00 70 1008.3
20260508021537 39 0 0.0 0.0 0.00 0.04 0.00 70 1008.3
20260508020036 40 0 0.0 0.0 0.00 0.04 0.00 69 1008.1
20260508014535 42 0 0.0 0.0 0.00 0.10 0.00 65 1008.0
20260508013034 43 0 0.0 0.0 0.00 0.10 0.00 60 1007.9
20260508011536 45 0 0.0 0.0 0.00 0.10 0.00 61 1007.8
20260508010042 46 0 0.0 0.0 0.00 0.10 0.00 48 1007.6
20260508004538 47 0 0.0 0.0 0.00 0.15 0.00 47 1007.3
20260508003037 48 0 0.0 0.0 0.00 0.15 0.00 46 1007.2
20260508001536 48 0 0.9 5.2 0.00 0.15 0.00 44 1007.0
20260508000041 49 4 0.9 3.5 0.00 0.15 0.00 42 1006.9
20260507234541 50 0 0.0 2.6 0.00 0.19 0.00 41 1006.6
20260507233036 51 0 0.9 6.1 0.00 0.19 0.00 39 1006.5